SUPERVIEW-1 01

导读 | 星芒AI

SUPERVIEW-1 01 是中国高分辨率商业遥感卫星“高景一号”系列的首颗卫星,由长光卫星技术有限公司研制。该卫星于2016年发射,具备0.5米全色和2米多光谱分辨率,主要用于土地调查、城市规划、灾害监测等领域。卫星采用先进的光学成像技术,具备快速重访和高精度定位能力,为用户提供高质量的遥感影像服务,推动了中国商业航天和遥感应用的发展。

基本信息
目录编号:
41907
目录名称:
SUPERVIEW-1 01
国际标识:
2016-083A
轨道中心:
EARTH
卫星名称:
SUPERVIEW-1 01
卫星全名:
--
卫星状态:
已陨落 最后检测时间 2025-01-15
发射日期:
2016-12-28 UTC
国别 :
中国 (CN)
星等 :
--
轨道信息
数据来源 国际轨道数据
星历时间: 2025-01-15T12:09:23+0800
轨道信息已过期332天
半长轴: 6553.853km
偏心率: 0.0008258
轨道倾角: 97.383°
近地点辐角 283.187°
升交点赤经 127.139°
平近点角 204.829°
近地点: 170.305km
远地点: 181.131km
周期: 88.004分钟
每日圈数: 16.362807
详细信息
使用方式:
暂无